Hauptseite
METAR-TAF:

METAR-TAF

Flughäfen :

Emmen, Schweiz

Militärflugplatz Emmen

Breite: 47-05-32N, Länge: 8-18-16E, Höhe: 426 m

Beobachtung

Neuester Wetterbericht von vor 39 Minuten, um 01:50 UTC
Wind 7 kt aus West
Temperatur 7°C
Luftfeuchtigkeit 81%
Luftdruck 1022 hPa
Sichtweite 10 km oder mehr
Leicht bewölkt in der Höhe von 2800 ft
Durchbrochene Bewölkung in der Höhe von 3800 ft
Geschlossene Wolkendecke in der Höhe von 7100 ft
Regenschauer

METAR: LSME 230150Z AUTO 26007KT 9999NDV -SHRA FEW028 BKN038 OVC071 07/04 Q1022 RMK

Zeit: 04:29 (02:29 UTC)


TAF: fehlend

Wetterbeobachtungen und Prognosen von mehr als 4000 Flughäfen (METAR und TAF Bericht).

Die verfügbaren Stationen werden durch gelbe und rote Markierungen auf der Karte dargestellt.

Führen Sie die Maus auf sie, um den Namen der Station zu sehen.

Darauf klicken, um die Beobachtung von Wetterbeobachtungen und Prognosen zu sehen.

Um die Karte zu ändern : klicken Sie auf den grünen Tasten mit einem schwarzen Kreuz Zum Vergrößern, auf den grünen Button mit einem Gedankenstrich zu verkleinern, oder auf die grünen Pfeile für benachbarte Karten.


METAR-TAF: